China Lake, CA

3:11 PM PST on November 23, 2017 (GMT -0800)
China Lake NAWS

Weather History for KNID - December, 2012

Change the Weather History Date:

Friday, December 14, 2012

  Actual Average Record
Temperature  
Mean Temperature 42 °F -  
Max Temperature 52 °F 56 °F 77 °F (2016)
Min Temperature 32 °F 31 °F 19 °F (2007)
Degree Days  
Heating Degree Days 23    
Moisture  
Dew Point 28 °F    
Average Humidity 60    
Maximum Humidity 97    
Minimum Humidity 32    
Precipitation  
Precipitation 0.00 in - - ()
Sea Level Pressure  
Sea Level Pressure 29.77 in    
Wind  
Wind Speed 6 mph (SSW)    
Max Wind Speed 23 mph    
Max Gust Speed 31 mph    
Visibility 10 miles    
Events      
Averages and records for this station are not official NWS values.
T = Trace of Precipitation, MM = Missing Value Source: NWS Daily Summary

Daily Weather History Graph

Daily Weather History Graph

Search for Another Location

Airport or City:

Trip Planner

Search our weather history database for the weather conditions in past years. The results will help you decide how hot, cold, wet, or windy it might be!

Date:

Astronomy

Dec. 14, 2012 Rise Set
Actual Time 6:52 AM PST 4:38 PM PST
Civil Twilight 6:24 AM PST 5:07 PM PST
Nautical Twilight 5:52 AM PST 5:38 PM PST
Astronomical Twilight 5:21 AM PST 6:10 PM PST
Moon 8:03 AM PST (12/14) 6:34 PM PST (12/14)
Length of Visible Light 10h 42m
Length of Day
9h 45m
Waxing Crescent, 3% of the Moon is Illuminated
Dec 14
Waxing Crescent
Dec 19
First Quarter
Dec 28
Full
Jan 4
Last Quarter
Jan 11
New

Hourly Weather History & Observations

Time (PST) Temp. Windchill Dew Point Humidity Pressure Visibility Wind Dir Wind Speed Gust Speed Precip Events Conditions
12:56 AM 39.9 °F - 39.0 °F 97% 29.70 in 10.0 mi Calm Calm - N/A   Scattered Clouds
1:56 AM 37.0 °F 33.3 °F 36.0 °F 96% 29.69 in 10.0 mi South 4.6 mph - N/A   Overcast
2:56 AM 39.0 °F 34.0 °F 33.1 °F 79% 29.69 in 10.0 mi SSW 6.9 mph - N/A   Overcast
3:56 AM 36.0 °F - 33.1 °F 89% 29.68 in 10.0 mi Calm Calm - N/A   Clear
4:56 AM 36.0 °F 30.3 °F 30.0 °F 79% 29.69 in 10.0 mi SSW 6.9 mph - N/A   Clear
5:56 AM 34.0 °F 28.0 °F 28.9 °F 82% 29.71 in 10.0 mi SSW 6.9 mph - N/A   Clear
6:56 AM 32.0 °F - 28.0 °F 85% 29.74 in 10.0 mi Calm Calm - N/A   Partly Cloudy
7:56 AM 35.1 °F - 30.9 °F 85% 29.76 in 10.0 mi Calm Calm - N/A   Clear
8:56 AM 37.9 °F 35.5 °F 32.0 °F 79% 29.78 in 10.0 mi SE 3.5 mph - N/A   Partly Cloudy
9:56 AM 46.9 °F - 35.1 °F 63% 29.78 in 10.0 mi North 3.5 mph - N/A   Partly Cloudy
10:56 AM 48.9 °F - 33.1 °F 54% 29.76 in 10.0 mi NW 3.5 mph - N/A   Scattered Clouds
11:56 AM 52.0 °F - 27.0 °F 38% 29.75 in 10.0 mi South 5.8 mph - N/A   Mostly Cloudy
12:56 PM 52.0 °F - 25.0 °F 35% 29.73 in 10.0 mi South 18.4 mph 23.0 mph N/A   Mostly Cloudy
1:56 PM 52.0 °F - 23.0 °F 32% 29.73 in 10.0 mi South 20.7 mph 26.5 mph N/A   Overcast
2:56 PM 50.0 °F - 26.1 °F 39% 29.76 in 10.0 mi SSW 15.0 mph - N/A   Overcast
3:56 PM 48.0 °F - 26.1 °F 42% 29.78 in 10.0 mi SW 16.1 mph - N/A   Overcast
4:56 PM 46.9 °F - 25.0 °F 42% 29.79 in 10.0 mi SSW 17.3 mph 24.2 mph N/A   Overcast
5:56 PM 44.1 °F 35.9 °F 25.0 °F 47% 29.81 in 10.0 mi South 19.6 mph 28.8 mph N/A   Overcast
6:56 PM 43.0 °F 33.8 °F 21.9 °F 43% 29.83 in 10.0 mi South 23.0 mph 31.1 mph N/A   Overcast
7:56 PM 42.1 °F 33.9 °F 21.9 °F 45% 29.85 in 10.0 mi SSW 17.3 mph 24.2 mph N/A   Overcast
8:56 PM 42.1 °F 37.1 °F 24.1 °F 49% 29.87 in 10.0 mi WSW 8.1 mph - N/A   Overcast
9:56 PM 42.1 °F 36.6 °F 23.0 °F 47% 29.87 in 10.0 mi SSW 9.2 mph - N/A   Overcast
10:56 PM 41.0 °F 38.0 °F 23.0 °F 49% 29.88 in 10.0 mi West 4.6 mph - N/A   Mostly Cloudy
11:56 PM 39.0 °F 36.8 °F 23.0 °F 53% 29.87 in 10.0 mi WSW 3.5 mph - N/A   Clear